SWA2505 KROC-KDTW

Flight info

Callsign SWA2505
Flight time 0h 49m
Altitude 36000
Route GEE DONEO TPGUN2
Aircraft B739/M-SDE2E3FGHIRWXY/LB1

Departure

Time 2026-05-08 00:11
Airport Frederick Douglass Greater Rochester International Airport (KROC)

Arrival

Time 2026-05-08 01:00
Airport Detroit Metropolitan Wayne County Airport (KDTW)
Time Latitude Longitude Altitude Speed Heading
2026-05-07 23:55 43.12632 -77.66620 549 ft 0 kts 301°
2026-05-08 00:00 43.12622 -77.66592 549 ft 4 kts 280°
2026-05-08 00:00 43.12622 -77.66558 549 ft 4 kts 242°
2026-05-08 00:01 43.12634 -77.66538 562 ft 0 kts 209°
2026-05-08 00:06 43.12609 -77.66554 555 ft 2 kts 204°
2026-05-08 00:06 43.12568 -77.66578 549 ft 12 kts 205°
2026-05-08 00:06 43.12523 -77.66675 549 ft 12 kts 262°
2026-05-08 00:06 43.12513 -77.66798 549 ft 9 kts 268°
2026-05-08 00:07 43.12511 -77.66857 549 ft 0 kts 263°
2026-05-08 00:07 43.12511 -77.66871 549 ft 5 kts 270°
2026-05-08 00:07 43.12510 -77.66914 549 ft 2 kts 270°
2026-05-08 00:07 43.12510 -77.66964 549 ft 5 kts 268°
2026-05-08 00:08 43.12510 -77.66969 549 ft 1 kts 267°
2026-05-08 00:08 43.12509 -77.67026 549 ft 8 kts 268°
2026-05-08 00:08 43.12508 -77.67070 549 ft 5 kts 268°
2026-05-08 00:08 43.12522 -77.67152 553 ft 11 kts 293°
2026-05-08 00:09 43.12525 -77.67210 555 ft 3 kts 226°
2026-05-08 00:09 43.12506 -77.67241 550 ft 1 kts 215°
2026-05-08 00:09 43.12500 -77.67246 550 ft 0 kts 209°
2026-05-08 00:10 43.12498 -77.67247 548 ft 3 kts 210°
2026-05-08 00:10 43.12253 -77.67454 546 ft 86 kts 212°
2026-05-08 00:10 43.11497 -77.68096 555 ft 162 kts 213°
2026-05-08 00:11 43.10469 -77.68981 1067 ft 185 kts 214°
2026-05-08 00:11 43.09350 -77.69993 1907 ft 197 kts 216°
2026-05-08 00:11 43.08226 -77.71028 2950 ft 195 kts 216°
2026-05-08 00:11 43.07003 -77.71995 3560 ft 214 kts 210°
2026-05-08 00:12 43.05611 -77.72970 3916 ft 231 kts 209°
2026-05-08 00:12 43.04367 -77.74333 4469 ft 233 kts 240°
2026-05-08 00:12 43.03931 -77.76432 5153 ft 234 kts 263°
2026-05-08 00:12 43.03735 -77.78729 5613 ft 249 kts 264°
2026-05-08 00:13 43.03532 -77.81107 6518 ft 251 kts 263°
2026-05-08 00:13 43.03315 -77.83466 7492 ft 251 kts 263°
2026-05-08 00:13 43.03078 -77.85842 8390 ft 253 kts 262°
2026-05-08 00:13 43.02824 -77.88237 9301 ft 256 kts 261°
2026-05-08 00:14 43.02557 -77.90649 10179 ft 258 kts 261°
2026-05-08 00:14 43.02270 -77.93151 10599 ft 278 kts 261°
2026-05-08 00:14 43.01950 -77.95870 10793 ft 302 kts 261°
2026-05-08 00:14 43.01596 -77.98823 10973 ft 326 kts 260°
2026-05-08 00:15 43.01212 -78.01977 11144 ft 347 kts 260°
2026-05-08 00:15 43.00808 -78.05258 11450 ft 361 kts 260°
2026-05-08 00:15 43.00385 -78.08657 12113 ft 363 kts 260°
2026-05-08 00:15 42.99960 -78.12058 12878 ft 364 kts 260°
2026-05-08 00:16 42.99528 -78.15488 13539 ft 368 kts 260°
2026-05-08 00:16 42.99090 -78.18949 14122 ft 372 kts 260°
2026-05-08 00:16 42.98648 -78.22439 14737 ft 374 kts 260°
2026-05-08 00:16 42.98201 -78.25945 15341 ft 376 kts 259°
2026-05-08 00:17 42.97751 -78.29475 15940 ft 378 kts 259°
2026-05-08 00:17 42.97296 -78.33030 16510 ft 381 kts 259°
2026-05-08 00:17 42.96838 -78.36601 17080 ft 384 kts 259°
2026-05-08 00:17 42.96374 -78.40204 17643 ft 386 kts 259°
2026-05-08 00:18 42.95907 -78.43825 18197 ft 389 kts 259°
2026-05-08 00:18 42.95436 -78.47469 18679 ft 391 kts 259°
2026-05-08 00:18 42.94962 -78.51130 19154 ft 393 kts 259°
2026-05-08 00:18 42.94484 -78.54807 19633 ft 395 kts 259°
2026-05-08 00:19 42.94002 -78.58505 20101 ft 397 kts 259°
2026-05-08 00:19 42.93516 -78.62224 20557 ft 399 kts 259°
2026-05-08 00:19 42.93027 -78.65959 21012 ft 401 kts 259°
2026-05-08 00:19 42.92533 -78.69720 21439 ft 404 kts 260°
2026-05-08 00:20 42.92031 -78.73529 21730 ft 410 kts 260°
2026-05-08 00:20 42.91524 -78.77369 22162 ft 412 kts 260°
2026-05-08 00:20 42.91015 -78.81213 22641 ft 413 kts 260°
2026-05-08 00:20 42.90503 -78.85077 23055 ft 415 kts 260°
2026-05-08 00:21 42.89986 -78.88959 23450 ft 417 kts 260°
2026-05-08 00:21 42.89465 -78.92862 23787 ft 420 kts 260°
2026-05-08 00:21 42.88945 -78.96753 24366 ft 413 kts 259°
2026-05-08 00:21 42.88436 -79.00544 24866 ft 411 kts 259°
2026-05-08 00:22 42.87917 -79.04395 25113 ft 414 kts 259°
2026-05-08 00:22 42.87394 -79.08275 25278 ft 420 kts 260°
2026-05-08 00:22 42.86860 -79.12218 25430 ft 424 kts 260°
2026-05-08 00:22 42.86324 -79.16171 25771 ft 424 kts 260°
2026-05-08 00:23 42.85788 -79.20111 26166 ft 421 kts 260°
2026-05-08 00:23 42.85258 -79.23999 26850 ft 412 kts 260°
2026-05-08 00:23 42.84738 -79.27798 27696 ft 402 kts 259°
2026-05-08 00:23 42.84232 -79.31489 28577 ft 392 kts 259°
2026-05-08 00:24 42.83736 -79.35096 29386 ft 384 kts 259°
2026-05-08 00:24 42.83247 -79.38651 30050 ft 380 kts 259°
2026-05-08 00:24 42.82759 -79.42184 30437 ft 380 kts 259°
2026-05-08 00:24 42.82268 -79.45735 30624 ft 385 kts 260°
2026-05-08 00:25 42.81767 -79.49346 30819 ft 389 kts 260°
2026-05-08 00:25 42.81265 -79.52960 31235 ft 387 kts 260°
2026-05-08 00:25 42.80764 -79.56553 31722 ft 384 kts 260°
2026-05-08 00:25 42.80264 -79.60134 31920 ft 386 kts 260°
2026-05-08 00:26 42.79257 -79.67322 31949 ft 388 kts 260°
2026-05-08 00:26 42.78282 -79.74574 31945 ft 388 kts 262°
2026-05-08 00:27 42.77660 -79.81817 31959 ft 384 kts 264°
2026-05-08 00:27 42.77102 -79.89062 31942 ft 385 kts 264°
2026-05-08 00:28 42.76513 -79.96297 31953 ft 385 kts 264°
2026-05-08 00:28 42.75901 -80.03521 31952 ft 384 kts 264°
2026-05-08 00:29 42.75285 -80.10690 31955 ft 383 kts 264°
2026-05-08 00:29 42.74661 -80.17889 31967 ft 383 kts 264°
2026-05-08 00:30 42.74028 -80.25149 31969 ft 391 kts 264°
2026-05-08 00:30 42.73377 -80.32571 31972 ft 400 kts 264°
2026-05-08 00:31 42.72776 -80.40135 31955 ft 403 kts 266°
2026-05-08 00:31 42.72464 -80.47750 31961 ft 404 kts 267°
2026-05-08 00:32 42.72179 -80.55384 31956 ft 404 kts 267°
2026-05-08 00:32 42.71860 -80.63024 31964 ft 405 kts 267°
2026-05-08 00:33 42.71521 -80.70681 31964 ft 406 kts 266°
2026-05-08 00:33 42.71175 -80.78349 32046 ft 407 kts 266°
2026-05-08 00:34 42.70827 -80.86000 32067 ft 403 kts 266°
2026-05-08 00:34 42.70475 -80.93564 32061 ft 399 kts 266°
2026-05-08 00:35 42.70119 -81.01078 32069 ft 402 kts 266°
2026-05-08 00:35 42.69754 -81.08715 31796 ft 405 kts 266°
2026-05-08 00:36 42.69572 -81.12493 31534 ft 397 kts 266°
2026-05-08 00:36 42.69389 -81.16244 30571 ft 400 kts 267°
2026-05-08 00:36 42.69267 -81.18737 30004 ft 399 kts 267°
2026-05-08 00:36 42.69022 -81.23729 29044 ft 390 kts 267°
2026-05-08 00:37 42.68843 -81.27338 28799 ft 375 kts 267°
2026-05-08 00:37 42.68670 -81.30794 28668 ft 359 kts 268°
2026-05-08 00:37 42.68503 -81.34102 28566 ft 344 kts 268°
2026-05-08 00:38 42.68133 -81.39456 27618 ft 340 kts 265°
2026-05-08 00:38 42.67852 -81.42633 27093 ft 337 kts 265°
2026-05-08 00:38 42.67567 -81.45785 26567 ft 334 kts 265°
2026-05-08 00:38 42.67289 -81.48908 26078 ft 332 kts 266°
2026-05-08 00:39 42.67016 -81.52011 25575 ft 330 kts 266°
2026-05-08 00:39 42.66747 -81.55098 25087 ft 328 kts 266°
2026-05-08 00:39 42.66481 -81.58171 24606 ft 327 kts 266°
2026-05-08 00:39 42.66217 -81.61229 24128 ft 325 kts 266°
2026-05-08 00:40 42.65953 -81.64281 23650 ft 325 kts 266°
2026-05-08 00:40 42.65690 -81.67326 23088 ft 324 kts 267°
2026-05-08 00:40 42.65427 -81.70355 22581 ft 322 kts 266°
2026-05-08 00:40 42.65165 -81.73363 22106 ft 319 kts 266°
2026-05-08 00:41 42.64904 -81.76344 21641 ft 317 kts 266°
2026-05-08 00:41 42.64643 -81.79316 21171 ft 315 kts 266°
2026-05-08 00:41 42.64388 -81.82222 20539 ft 316 kts 266°
2026-05-08 00:41 42.64123 -81.85228 19890 ft 321 kts 266°
2026-05-08 00:42 42.63856 -81.88242 19353 ft 321 kts 266°
2026-05-08 00:42 42.63588 -81.91240 18885 ft 319 kts 266°
2026-05-08 00:42 42.63321 -81.94224 18416 ft 317 kts 266°
2026-05-08 00:42 42.63056 -81.97184 17944 ft 315 kts 266°
2026-05-08 00:43 42.62792 -82.00121 17497 ft 312 kts 266°
2026-05-08 00:43 42.62530 -82.03029 17054 ft 308 kts 266°
2026-05-08 00:43 42.62271 -82.05903 16619 ft 305 kts 266°
2026-05-08 00:43 42.62014 -82.08749 16190 ft 302 kts 266°
2026-05-08 00:44 42.61758 -82.11565 15762 ft 299 kts 266°
2026-05-08 00:44 42.61505 -82.14357 15329 ft 297 kts 266°
2026-05-08 00:44 42.61252 -82.17128 14913 ft 295 kts 266°
2026-05-08 00:44 42.61001 -82.19881 14493 ft 293 kts 266°
2026-05-08 00:45 42.60750 -82.22613 14067 ft 291 kts 266°
2026-05-08 00:45 42.60501 -82.25327 13642 ft 289 kts 266°
2026-05-08 00:45 42.60253 -82.28018 13246 ft 285 kts 266°
2026-05-08 00:45 42.60008 -82.30675 12833 ft 282 kts 266°
2026-05-08 00:46 42.59766 -82.33304 12436 ft 279 kts 265°
2026-05-08 00:46 42.59524 -82.35907 12034 ft 277 kts 265°
2026-05-08 00:46 42.59283 -82.38497 11609 ft 276 kts 265°
2026-05-08 00:46 42.59044 -82.41045 11188 ft 275 kts 264°
2026-05-08 00:47 42.58566 -82.43549 10808 ft 276 kts 252°
2026-05-08 00:47 42.57805 -82.45977 10455 ft 274 kts 250°
2026-05-08 00:47 42.57072 -82.48267 10354 ft 263 kts 251°
2026-05-08 00:47 42.56359 -82.50513 10211 ft 254 kts 251°
2026-05-08 00:48 42.55677 -82.52677 10103 ft 245 kts 251°
2026-05-08 00:48 42.55025 -82.54766 9998 ft 236 kts 251°
2026-05-08 00:48 42.54392 -82.56800 9765 ft 233 kts 251°
2026-05-08 00:48 42.53768 -82.58816 9488 ft 231 kts 251°
2026-05-08 00:49 42.53120 -82.60809 9184 ft 232 kts 244°
2026-05-08 00:49 42.52211 -82.62626 8907 ft 231 kts 245°
2026-05-08 00:49 42.51461 -82.64542 8560 ft 231 kts 248°
2026-05-08 00:49 42.50726 -82.66563 7940 ft 244 kts 248°
2026-05-08 00:50 42.49982 -82.68648 7417 ft 252 kts 248°
2026-05-08 00:50 42.49219 -82.70823 6885 ft 259 kts 248°
2026-05-08 00:50 42.48446 -82.73058 6363 ft 265 kts 248°
2026-05-08 00:50 42.47661 -82.75345 5807 ft 269 kts 248°
2026-05-08 00:51 42.46872 -82.77632 5352 ft 265 kts 245°
2026-05-08 00:51 42.46066 -82.79760 5373 ft 245 kts 248°
2026-05-08 00:51 42.45357 -82.81755 5422 ft 226 kts 248°
2026-05-08 00:51 42.44700 -82.83606 5419 ft 211 kts 248°
2026-05-08 00:52 42.44075 -82.85360 5434 ft 204 kts 248°
2026-05-08 00:52 42.43458 -82.87085 5437 ft 204 kts 248°
2026-05-08 00:52 42.42837 -82.88826 5389 ft 208 kts 248°
2026-05-08 00:52 42.42213 -82.90583 5134 ft 211 kts 248°
2026-05-08 00:53 42.41577 -82.92375 5023 ft 207 kts 248°
2026-05-08 00:53 42.40954 -82.94137 4997 ft 207 kts 248°
2026-05-08 00:53 42.40325 -82.95910 4761 ft 212 kts 248°
2026-05-08 00:53 42.39692 -82.97710 4445 ft 211 kts 248°
2026-05-08 00:54 42.39063 -82.99497 4134 ft 210 kts 248°
2026-05-08 00:54 42.38447 -83.01258 4011 ft 204 kts 248°
2026-05-08 00:54 42.37856 -83.02959 3995 ft 202 kts 248°
2026-05-08 00:54 42.37257 -83.04693 4004 ft 205 kts 248°
2026-05-08 00:55 42.36627 -83.06453 3996 ft 206 kts 246°
2026-05-08 00:55 42.35977 -83.08143 3989 ft 206 kts 246°
2026-05-08 00:55 42.35314 -83.09856 3991 ft 205 kts 246°
2026-05-08 00:55 42.34657 -83.11559 3986 ft 204 kts 246°
2026-05-08 00:56 42.34003 -83.13261 3986 ft 204 kts 246°
2026-05-08 00:56 42.33353 -83.14957 3996 ft 203 kts 246°
2026-05-08 00:56 42.32698 -83.16677 3987 ft 203 kts 245°
2026-05-08 00:56 42.32052 -83.18365 3982 ft 202 kts 245°
2026-05-08 00:57 42.31403 -83.20058 3991 ft 203 kts 245°
2026-05-08 00:57 42.30764 -83.21727 3892 ft 201 kts 245°
2026-05-08 00:57 42.30119 -83.23412 3605 ft 203 kts 245°
2026-05-08 00:57 42.29469 -83.25110 3364 ft 203 kts 245°
2026-05-08 00:58 42.28833 -83.26768 3312 ft 193 kts 245°
2026-05-08 00:58 42.28226 -83.28315 3225 ft 181 kts 240°
2026-05-08 00:58 42.27338 -83.29438 2888 ft 179 kts 214°
2026-05-08 00:58 42.26200 -83.30244 2368 ft 183 kts 211°
2026-05-08 00:59 42.25060 -83.31020 1785 ft 181 kts 211°
2026-05-08 00:59 42.23987 -83.31860 1192 ft 177 kts 214°
2026-05-08 00:59 42.22979 -83.32647 935 ft 158 kts 213°
2026-05-08 00:59 42.22056 -83.33333 718 ft 145 kts 210°
2026-05-08 01:00 42.21170 -83.33995 649 ft 145 kts 209°
2026-05-08 01:00 42.20393 -83.34571 647 ft 106 kts 208°
2026-05-08 01:00 42.19932 -83.34911 642 ft 47 kts 209°
2026-05-08 01:00 42.19725 -83.35062 644 ft 27 kts 209°
2026-05-08 01:01 42.19605 -83.35210 644 ft 22 kts 261°
2026-05-08 01:01 42.19695 -83.35335 646 ft 21 kts 16°
2026-05-08 01:01 42.19828 -83.35238 646 ft 23 kts 28°
2026-05-08 01:01 42.19977 -83.35131 645 ft 25 kts 29°
2026-05-08 01:02 42.20124 -83.35025 647 ft 22 kts 17°
2026-05-08 01:02 42.20178 -83.35080 646 ft 7 kts 281°
2026-05-08 01:02 42.20184 -83.35157 646 ft 9 kts 272°
2026-05-08 01:02 42.20178 -83.35251 647 ft 12 kts 263°
2026-05-08 01:03 42.20174 -83.35356 646 ft 12 kts 270°
2026-05-08 01:03 42.20173 -83.35398 646 ft 5 kts 268°
2026-05-08 01:03 42.20172 -83.35439 646 ft 7 kts 268°